Location: *
(58.4167°N, 22.5000°E)
Time: 18:38:07
(UTC+00:00)

SJ 16-02 - Pass Details

Date: 22 September 2019
Orbit: 606 x 617 km, 75.0° (Epoch: 23 October)

Event Time Altitude Azimuth Distance (km) Brightness Sun altitude
Rises 17:32:35 0° 289° (WNW) 2,899 7.3 -8.8°
Reaches altitude 10° 17:36:29 10° 323° (NW) 1,994 4.8 -9.3°
Maximum altitude 17:37:58 11° 343° (NNW) 1,900 4.3 -9.5°
Drops below altitude 10° 17:39:27 10° 2° (N) 1,994 4.2 -9.7°
Sets 17:43:20 0° 37° (NE) 2,900 4.6 -10.2°
